VOI750 MMGL-MMSD

Flight info

Callsign VOI750
Flight time 1h 8m
Altitude 36000
Route SEDEM1B SEDEM UJ3 RADAP UT153 DEDKU UT14 TENAY TENAY1A
Aircraft A21N/M-SDE2E3FGHIRWXY/LB1

Departure

Time 2026-05-08 17:08
Airport Guadalajara International Airport (MMGL)

Arrival

Time 2026-05-08 18:17
Airport Los Cabos International Airport (MMSD)
Time Latitude Longitude Altitude Speed Heading
2026-05-08 16:38 20.52424 -103.30077 5029 ft 0 kts 18°
2026-05-08 16:58 20.52423 -103.30078 5029 ft 0 kts 18°
2026-05-08 16:58 20.52411 -103.30081 5029 ft 2 kts
2026-05-08 16:58 20.52396 -103.30080 5029 ft 2 kts 348°
2026-05-08 16:58 20.52382 -103.30075 5029 ft 2 kts 332°
2026-05-08 16:59 20.52370 -103.30066 5029 ft 2 kts 316°
2026-05-08 16:59 20.52360 -103.30054 5029 ft 2 kts 301°
2026-05-08 16:59 20.52354 -103.30042 5029 ft 1 kts 288°
2026-05-08 16:59 20.52354 -103.30039 5029 ft 0 kts 286°
2026-05-08 17:04 20.52356 -103.30048 5029 ft 4 kts 286°
2026-05-08 17:04 20.52370 -103.30096 5029 ft 7 kts 288°
2026-05-08 17:04 20.52390 -103.30156 5029 ft 9 kts 290°
2026-05-08 17:04 20.52373 -103.30217 5029 ft 10 kts 216°
2026-05-08 17:05 20.52305 -103.30245 5030 ft 10 kts 199°
2026-05-08 17:05 20.52244 -103.30214 5030 ft 11 kts 124°
2026-05-08 17:05 20.52209 -103.30137 5030 ft 12 kts 113°
2026-05-08 17:05 20.52174 -103.30048 5030 ft 13 kts 114°
2026-05-08 17:06 20.52133 -103.29954 5029 ft 14 kts 114°
2026-05-08 17:06 20.52091 -103.29852 5029 ft 15 kts 114°
2026-05-08 17:06 20.52046 -103.29745 5029 ft 16 kts 114°
2026-05-08 17:06 20.52001 -103.29636 5029 ft 14 kts 113°
2026-05-08 17:07 20.51959 -103.29553 5029 ft 11 kts 138°
2026-05-08 17:07 20.51881 -103.29554 5029 ft 12 kts 204°
2026-05-08 17:07 20.51824 -103.29610 5030 ft 12 kts 277°
2026-05-08 17:07 20.51887 -103.29774 5030 ft 53 kts 295°
2026-05-08 17:08 20.52134 -103.30363 5031 ft 119 kts 295°
2026-05-08 17:08 20.52559 -103.31382 5040 ft 174 kts 294°
2026-05-08 17:08 20.53066 -103.32597 5509 ft 181 kts 294°
2026-05-08 17:08 20.53565 -103.33825 6122 ft 185 kts 293°
2026-05-08 17:09 20.54051 -103.35068 6684 ft 179 kts 292°
2026-05-08 17:09 20.54544 -103.36312 7005 ft 189 kts 296°
2026-05-08 17:09 20.55360 -103.37474 7269 ft 203 kts 314°
2026-05-08 17:09 20.56430 -103.38532 7534 ft 217 kts 317°
2026-05-08 17:10 20.57603 -103.39655 7737 ft 236 kts 317°
2026-05-08 17:10 20.58855 -103.40884 8085 ft 250 kts 316°
2026-05-08 17:10 20.60164 -103.42203 8381 ft 267 kts 315°
2026-05-08 17:10 20.61547 -103.43621 8705 ft 282 kts 315°
2026-05-08 17:11 20.62958 -103.45080 9225 ft 288 kts 315°
2026-05-08 17:11 20.64404 -103.46581 9842 ft 290 kts 315°
2026-05-08 17:11 20.65863 -103.48098 10431 ft 294 kts 315°
2026-05-08 17:11 20.67326 -103.49625 10987 ft 298 kts 314°
2026-05-08 17:12 20.68805 -103.51170 11539 ft 302 kts 314°
2026-05-08 17:12 20.70328 -103.52763 12107 ft 306 kts 314°
2026-05-08 17:12 20.71851 -103.54356 12670 ft 310 kts 314°
2026-05-08 17:12 20.73408 -103.55986 13237 ft 315 kts 313°
2026-05-08 17:13 20.74964 -103.57617 13805 ft 318 kts 313°
2026-05-08 17:13 20.76546 -103.59277 14394 ft 320 kts 313°
2026-05-08 17:13 20.78150 -103.60960 14972 ft 323 kts 313°
2026-05-08 17:13 20.79748 -103.62637 15529 ft 326 kts 313°
2026-05-08 17:14 20.81393 -103.64365 15861 ft 337 kts 313°
2026-05-08 17:14 20.83084 -103.66146 16105 ft 351 kts 313°
2026-05-08 17:14 20.84865 -103.68031 16343 ft 364 kts 313°
2026-05-08 17:14 20.86687 -103.69958 16573 ft 377 kts 313°
2026-05-08 17:15 20.88594 -103.71969 16795 ft 389 kts 313°
2026-05-08 17:15 20.90564 -103.74040 17006 ft 401 kts 313°
2026-05-08 17:15 20.92574 -103.76156 17211 ft 412 kts 313°
2026-05-08 17:15 20.94625 -103.78312 17547 ft 418 kts 313°
2026-05-08 17:16 20.96716 -103.80509 17995 ft 420 kts 313°
2026-05-08 17:16 20.98795 -103.82695 18459 ft 421 kts 313°
2026-05-08 17:16 21.00885 -103.84894 18902 ft 422 kts 313°
2026-05-08 17:16 21.02984 -103.87103 19314 ft 424 kts 313°
2026-05-08 17:17 21.05082 -103.89313 19705 ft 426 kts 313°
2026-05-08 17:17 21.07195 -103.91540 20097 ft 428 kts 313°
2026-05-08 17:17 21.09326 -103.93787 20494 ft 429 kts 312°
2026-05-08 17:17 21.11473 -103.96066 20872 ft 430 kts 311°
2026-05-08 17:18 21.13573 -103.98359 21231 ft 431 kts 311°
2026-05-08 17:18 21.15646 -104.00654 21601 ft 432 kts 310°
2026-05-08 17:18 21.17740 -104.02979 21968 ft 433 kts 310°
2026-05-08 17:18 21.19844 -104.05313 22321 ft 435 kts 310°
2026-05-08 17:19 21.21937 -104.07632 22675 ft 436 kts 310°
2026-05-08 17:19 21.24058 -104.09982 22990 ft 438 kts 310°
2026-05-08 17:19 21.26189 -104.12344 23304 ft 439 kts 310°
2026-05-08 17:19 21.28319 -104.14707 23610 ft 441 kts 310°
2026-05-08 17:20 21.30438 -104.17062 23913 ft 442 kts 310°
2026-05-08 17:20 21.32409 -104.19605 24195 ft 440 kts 302°
2026-05-08 17:20 21.34020 -104.22367 24473 ft 438 kts 295°
2026-05-08 17:20 21.35281 -104.25353 24766 ft 436 kts 288°
2026-05-08 17:21 21.36324 -104.28412 25060 ft 437 kts 286°
2026-05-08 17:21 21.37320 -104.31451 25338 ft 438 kts 286°
2026-05-08 17:21 21.38323 -104.34534 25617 ft 439 kts 286°
2026-05-08 17:21 21.39341 -104.37659 25887 ft 440 kts 286°
2026-05-08 17:22 21.40351 -104.40751 26141 ft 442 kts 286°
2026-05-08 17:22 21.41369 -104.43868 26311 ft 445 kts 286°
2026-05-08 17:22 21.42393 -104.46996 26528 ft 446 kts 286°
2026-05-08 17:22 21.43409 -104.50097 26902 ft 444 kts 286°
2026-05-08 17:23 21.44428 -104.53209 27229 ft 443 kts 286°
2026-05-08 17:23 21.45449 -104.56325 27562 ft 442 kts 286°
2026-05-08 17:23 21.46474 -104.59454 27915 ft 440 kts 286°
2026-05-08 17:23 21.47478 -104.62527 28283 ft 438 kts 285°
2026-05-08 17:24 21.48475 -104.65578 28669 ft 435 kts 285°
2026-05-08 17:24 21.49472 -104.68644 29071 ft 433 kts 285°
2026-05-08 17:24 21.50467 -104.71700 29459 ft 432 kts 285°
2026-05-08 17:24 21.51453 -104.74733 29818 ft 431 kts 285°
2026-05-08 17:25 21.52440 -104.77764 30192 ft 430 kts 284°
2026-05-08 17:25 21.53428 -104.80803 30536 ft 429 kts 285°
2026-05-08 17:25 21.54402 -104.83804 30875 ft 429 kts 284°
2026-05-08 17:25 21.55389 -104.86834 31232 ft 429 kts 284°
2026-05-08 17:26 21.56368 -104.89848 31619 ft 427 kts 284°
2026-05-08 17:26 21.57341 -104.92845 32005 ft 426 kts 284°
2026-05-08 17:26 21.58304 -104.95813 32370 ft 425 kts 284°
2026-05-08 17:26 21.59270 -104.98790 32743 ft 424 kts 284°
2026-05-08 17:27 21.60237 -105.01771 33160 ft 422 kts 283°
2026-05-08 17:27 21.61199 -105.04742 33558 ft 421 kts 283°
2026-05-08 17:27 21.62157 -105.07706 33976 ft 419 kts 283°
2026-05-08 17:27 21.63116 -105.10672 34369 ft 418 kts 283°
2026-05-08 17:28 21.64067 -105.13612 34745 ft 417 kts 283°
2026-05-08 17:28 21.65011 -105.16532 35142 ft 415 kts 283°
2026-05-08 17:28 21.65951 -105.19440 35494 ft 414 kts 283°
2026-05-08 17:28 21.66896 -105.22373 35795 ft 414 kts 283°
2026-05-08 17:29 21.68767 -105.28185 35883 ft 414 kts 283°
2026-05-08 17:29 21.70653 -105.34046 35889 ft 413 kts 283°
2026-05-08 17:30 21.72526 -105.39873 35891 ft 414 kts 283°
2026-05-08 17:30 21.74394 -105.45695 35891 ft 413 kts 283°
2026-05-08 17:31 21.76200 -105.51561 35889 ft 412 kts 281°
2026-05-08 17:31 21.77879 -105.57445 35890 ft 412 kts 281°
2026-05-08 17:32 21.79549 -105.63290 35889 ft 412 kts 281°
2026-05-08 17:32 21.81230 -105.69164 35889 ft 411 kts 281°
2026-05-08 17:33 21.82910 -105.75034 35889 ft 410 kts 281°
2026-05-08 17:33 21.84582 -105.80866 35893 ft 411 kts 280°
2026-05-08 17:34 21.86265 -105.86750 35892 ft 410 kts 280°
2026-05-08 17:34 21.87935 -105.92588 35891 ft 409 kts 280°
2026-05-08 17:35 21.89605 -105.98435 35894 ft 409 kts 280°
2026-05-08 17:35 21.91260 -106.04243 35895 ft 409 kts 280°
2026-05-08 17:36 21.92928 -106.10098 35897 ft 408 kts 280°
2026-05-08 17:36 21.94583 -106.15919 35899 ft 409 kts 281°
2026-05-08 17:37 21.96245 -106.21770 35897 ft 408 kts 280°
2026-05-08 17:37 21.97906 -106.27626 35898 ft 409 kts 280°
2026-05-08 17:38 21.99549 -106.33431 35897 ft 408 kts 280°
2026-05-08 17:38 22.01220 -106.39343 35892 ft 412 kts 280°
2026-05-08 17:39 22.02887 -106.45238 35887 ft 412 kts 280°
2026-05-08 17:39 22.04543 -106.51101 35889 ft 412 kts 280°
2026-05-08 17:40 22.06205 -106.57003 35887 ft 412 kts 280°
2026-05-08 17:40 22.07933 -106.62901 35889 ft 414 kts 283°
2026-05-08 17:41 22.09961 -106.68685 35890 ft 414 kts 284°
2026-05-08 17:41 22.12042 -106.74476 35890 ft 413 kts 284°
2026-05-08 17:42 22.14106 -106.80223 35896 ft 413 kts 284°
2026-05-08 17:42 22.16160 -106.85973 35902 ft 413 kts 284°
2026-05-08 17:43 22.18221 -106.91767 35909 ft 412 kts 284°
2026-05-08 17:43 22.20259 -106.97514 35914 ft 412 kts 284°
2026-05-08 17:44 22.22304 -107.03284 35915 ft 411 kts 283°
2026-05-08 17:44 22.24348 -107.09059 35917 ft 412 kts 283°
2026-05-08 17:45 22.26372 -107.14790 35919 ft 411 kts 283°
2026-05-08 17:45 22.28399 -107.20537 35919 ft 412 kts 283°
2026-05-08 17:46 22.30437 -107.26319 35921 ft 413 kts 283°
2026-05-08 17:46 22.32462 -107.32076 35920 ft 411 kts 284°
2026-05-08 17:47 22.34490 -107.37841 35918 ft 411 kts 283°
2026-05-08 17:47 22.36185 -107.42671 35917 ft 411 kts 283°
2026-05-08 17:48 22.38537 -107.49379 35918 ft 411 kts 283°
2026-05-08 17:48 22.40559 -107.55156 35917 ft 411 kts 283°
2026-05-08 17:49 22.41561 -107.58020 35778 ft 412 kts 283°
2026-05-08 17:49 22.42574 -107.60917 35464 ft 409 kts 283°
2026-05-08 17:49 22.43566 -107.63753 35013 ft 406 kts 283°
2026-05-08 17:49 22.44557 -107.66592 34479 ft 403 kts 283°
2026-05-08 17:50 22.45539 -107.69424 33893 ft 403 kts 283°
2026-05-08 17:50 22.46512 -107.72229 33365 ft 404 kts 283°
2026-05-08 17:50 22.47508 -107.75095 32769 ft 402 kts 283°
2026-05-08 17:50 22.48482 -107.77896 32227 ft 399 kts 284°
2026-05-08 17:51 22.49449 -107.80680 31653 ft 398 kts 284°
2026-05-08 17:51 22.50416 -107.83466 31061 ft 397 kts 284°
2026-05-08 17:51 22.51382 -107.86254 30454 ft 397 kts 285°
2026-05-08 17:51 22.52345 -107.89022 29986 ft 391 kts 285°
2026-05-08 17:52 22.53295 -107.91750 29659 ft 383 kts 285°
2026-05-08 17:52 22.54230 -107.94439 29332 ft 378 kts 285°
2026-05-08 17:52 22.56056 -107.99708 28524 ft 372 kts 285°
2026-05-08 17:53 22.56961 -108.02316 28146 ft 367 kts 285°
2026-05-08 17:53 22.57840 -108.04854 27725 ft 364 kts 285°
2026-05-08 17:53 22.58723 -108.07406 27363 ft 359 kts 285°
2026-05-08 17:53 22.59585 -108.09901 27010 ft 355 kts 285°
2026-05-08 17:54 22.60451 -108.12408 26668 ft 350 kts 285°
2026-05-08 17:54 22.61293 -108.14843 26341 ft 346 kts 285°
2026-05-08 17:54 22.62125 -108.17255 26012 ft 342 kts 285°
2026-05-08 17:54 22.62955 -108.19665 25692 ft 339 kts 285°
2026-05-08 17:55 22.63780 -108.22053 25375 ft 337 kts 285°
2026-05-08 17:55 22.64591 -108.24409 25065 ft 335 kts 285°
2026-05-08 17:55 22.65397 -108.26754 24759 ft 334 kts 286°
2026-05-08 17:55 22.66207 -108.29106 24452 ft 333 kts 285°
2026-05-08 17:56 22.67012 -108.31448 24142 ft 332 kts 286°
2026-05-08 17:56 22.67821 -108.33805 23834 ft 331 kts 286°
2026-05-08 17:56 22.68621 -108.36134 23533 ft 331 kts 286°
2026-05-08 17:56 22.69420 -108.38463 23227 ft 330 kts 286°
2026-05-08 17:57 22.70209 -108.40762 22933 ft 330 kts 287°
2026-05-08 17:57 22.71009 -108.43090 22637 ft 330 kts 287°
2026-05-08 17:57 22.71806 -108.45412 22338 ft 329 kts 287°
2026-05-08 17:57 22.72596 -108.47718 22047 ft 328 kts 287°
2026-05-08 17:58 22.73389 -108.50035 21750 ft 326 kts 287°
2026-05-08 17:58 22.74172 -108.52319 21453 ft 324 kts 287°
2026-05-08 17:58 22.74947 -108.54584 21163 ft 323 kts 287°
2026-05-08 17:58 22.75732 -108.56879 20858 ft 321 kts 287°
2026-05-08 17:59 22.76498 -108.59123 20526 ft 320 kts 287°
2026-05-08 17:59 22.77267 -108.61374 20154 ft 319 kts 287°
2026-05-08 17:59 22.78034 -108.63623 19782 ft 318 kts 287°
2026-05-08 17:59 22.78792 -108.65845 19411 ft 317 kts 287°
2026-05-08 18:00 22.79560 -108.68108 19022 ft 316 kts 287°
2026-05-08 18:00 22.81066 -108.72544 18237 ft 316 kts 287°
2026-05-08 18:00 22.81827 -108.74782 17848 ft 316 kts 287°
2026-05-08 18:01 22.82583 -108.77003 17462 ft 316 kts 287°
2026-05-08 18:01 22.83346 -108.79245 17074 ft 315 kts 287°
2026-05-08 18:01 22.84103 -108.81471 16701 ft 314 kts 287°
2026-05-08 18:01 22.84851 -108.83673 16344 ft 312 kts 287°
2026-05-08 18:02 22.85591 -108.85849 15993 ft 310 kts 287°
2026-05-08 18:02 22.86343 -108.88058 15641 ft 308 kts 287°
2026-05-08 18:02 22.87071 -108.90205 15306 ft 306 kts 287°
2026-05-08 18:02 22.87806 -108.92371 14963 ft 304 kts 287°
2026-05-08 18:03 22.88528 -108.94497 14621 ft 301 kts 287°
2026-05-08 18:03 22.89249 -108.96629 14274 ft 299 kts 287°
2026-05-08 18:03 22.89957 -108.98721 13928 ft 298 kts 287°
2026-05-08 18:03 22.90788 -109.01176 13532 ft 295 kts 287°
2026-05-08 18:04 22.91491 -109.03256 13188 ft 293 kts 287°
2026-05-08 18:04 22.92188 -109.05321 12909 ft 287 kts 287°
2026-05-08 18:04 22.92871 -109.07342 12600 ft 284 kts 287°
2026-05-08 18:04 22.93547 -109.09346 12259 ft 283 kts 287°
2026-05-08 18:05 22.94213 -109.11320 11945 ft 282 kts 287°
2026-05-08 18:05 22.94884 -109.13313 11542 ft 281 kts 287°
2026-05-08 18:05 22.95558 -109.15311 11152 ft 281 kts 287°
2026-05-08 18:05 22.96230 -109.17302 10726 ft 280 kts 287°
2026-05-08 18:06 22.96890 -109.19259 10356 ft 278 kts 287°
2026-05-08 18:06 22.97556 -109.21235 10024 ft 274 kts 288°
2026-05-08 18:06 22.98194 -109.23120 9976 ft 260 kts 287°
2026-05-08 18:06 22.98801 -109.24919 9785 ft 253 kts 287°
2026-05-08 18:07 22.99400 -109.26703 9543 ft 247 kts 287°
2026-05-08 18:07 22.99931 -109.28433 9238 ft 243 kts 282°
2026-05-08 18:07 23.00200 -109.30232 8959 ft 238 kts 272°
2026-05-08 18:07 23.00186 -109.32010 8695 ft 233 kts 266°
2026-05-08 18:08 23.00067 -109.33747 8426 ft 229 kts 265°
2026-05-08 18:08 22.99940 -109.35430 8156 ft 225 kts 265°
2026-05-08 18:08 22.99814 -109.37136 7830 ft 224 kts 266°
2026-05-08 18:08 22.99690 -109.38814 7523 ft 223 kts 266°
2026-05-08 18:09 22.99567 -109.40488 7211 ft 222 kts 266°
2026-05-08 18:09 22.99445 -109.42162 6902 ft 221 kts 266°
2026-05-08 18:09 22.99325 -109.43819 6578 ft 221 kts 267°
2026-05-08 18:09 22.99205 -109.45461 6273 ft 220 kts 267°
2026-05-08 18:10 22.99085 -109.47133 5983 ft 220 kts 267°
2026-05-08 18:10 22.98966 -109.48780 5698 ft 220 kts 267°
2026-05-08 18:10 22.98847 -109.50443 5420 ft 222 kts 267°
2026-05-08 18:10 22.98727 -109.52113 5146 ft 223 kts 267°
2026-05-08 18:11 22.98604 -109.53804 4855 ft 224 kts 267°
2026-05-08 18:11 22.98482 -109.55491 4553 ft 225 kts 267°
2026-05-08 18:11 22.98358 -109.57174 4280 ft 226 kts 268°
2026-05-08 18:11 22.98234 -109.58866 4033 ft 226 kts 267°
2026-05-08 18:12 22.98110 -109.60567 3973 ft 227 kts 267°
2026-05-08 18:12 22.97969 -109.62283 3847 ft 228 kts 266°
2026-05-08 18:12 22.97801 -109.63993 3660 ft 228 kts 265°
2026-05-08 18:12 22.97630 -109.65694 3498 ft 228 kts 265°
2026-05-08 18:13 22.97462 -109.67405 3335 ft 228 kts 266°
2026-05-08 18:13 22.97576 -109.69109 3149 ft 224 kts 296°
2026-05-08 18:13 22.98581 -109.70319 3004 ft 216 kts 338°
2026-05-08 18:13 23.00019 -109.70617 2904 ft 214 kts 360°
2026-05-08 18:14 23.01519 -109.70650 2765 ft 211 kts
2026-05-08 18:14 23.02936 -109.70709 2534 ft 195 kts 358°
2026-05-08 18:14 23.04241 -109.70830 2256 ft 183 kts 356°
2026-05-08 18:14 23.05465 -109.70973 1974 ft 170 kts 356°
2026-05-08 18:15 23.06602 -109.71108 1737 ft 155 kts 357°
2026-05-08 18:15 23.07669 -109.71230 1546 ft 151 kts 358°
2026-05-08 18:15 23.08706 -109.71342 1352 ft 151 kts 356°
2026-05-08 18:15 23.09748 -109.71454 1131 ft 149 kts 356°
2026-05-08 18:16 23.10786 -109.71570 926 ft 148 kts 355°
2026-05-08 18:16 23.11811 -109.71690 732 ft 147 kts 354°
2026-05-08 18:16 23.12829 -109.71805 533 ft 146 kts 354°
2026-05-08 18:16 23.13838 -109.71923 355 ft 145 kts 353°
2026-05-08 18:17 23.14718 -109.72025 352 ft 92 kts 354°
2026-05-08 18:17 23.15183 -109.72077 367 ft 58 kts 354°
2026-05-08 18:17 23.15485 -109.72034 373 ft 34 kts 24°
2026-05-08 18:17 23.15593 -109.71980 373 ft 10 kts 26°
2026-05-08 18:18 23.15664 -109.71942 374 ft 11 kts 27°
2026-05-08 18:18 23.15710 -109.71876 374 ft 10 kts 86°
2026-05-08 18:18 23.15656 -109.71828 372 ft 10 kts 178°
2026-05-08 18:18 23.15629 -109.71797 371 ft 8 kts 94°
2026-05-08 18:19 23.15631 -109.71765 370 ft 0 kts 85°